Overview Statistics Trail Chart Weather Telemetry Raw packets
 

This is the latest recevied weather packets stored in our database for station/object SP9TKN-1. If no packets are shown the sender has not sent any weather packets the latest 10 day(s).

<< 1 2 3 4 5 >>
Time Temp. Humidity Pressure Rain* Wind** Luminosity Snow
1788551409 21.67° C 58% 984.7 hPa - - - -
1788550508 21.67° C 58% 984.7 hPa - - - -
1788549608 21.67° C 57% 984.7 hPa - - - -
1788548708 22.22° C 57% 984.9 hPa - - - -
1788547808 22.22° C 58% 985 hPa - - - -
1788546908 22.22° C 58% 985.3 hPa - - - -
1788546008 22.22° C 57% 985.6 hPa - - - -
1788545108 22.22° C 56% 985.7 hPa - - - -
1788544208 22.22° C 56% 985.5 hPa - - - -
1788543311 22.78° C 55% 985.3 hPa - - - -
1788542408 22.78° C 55% 985.3 hPa - - - -
1788541508 22.78° C 55% 985.2 hPa - - - -
1788540608 23.33° C 56% 985.3 hPa - - - -
1788539707 23.33° C 54% 985.5 hPa - - - -
1788538811 23.89° C 52% 985.6 hPa - - - -
1788537907 23.89° C 51% 985.8 hPa - - - -
1788537007 23.89° C 51% 985.9 hPa - - - -
1788536107 23.89° C 51% 986.1 hPa - - - -
1788535222 24.44° C 51% 986.4 hPa - - - -
1788534307 24.44° C 50% 986.6 hPa - - - -
1788533407 25° C 49% 986.8 hPa - - - -
1788532508 25° C 47% 986.9 hPa - - - -
1788531608 25° C 48% 987.1 hPa - - - -
1788530708 25.56° C 45% 987.3 hPa - - - -
1788529808 26.67° C 43% 987.4 hPa - - - -

* Rain since midnight (hover to see other rain measurements)
** Current wind speed in m/s (hover to see current wind gust speed)